07:06
Airports
History
Links
Donate
Help keep this website running!
PayPal
Bitcoin
This page is community maintained. The information is intended for PC simulator navigation or reference.
Always use approved charts for navigation.
VDSR
Siem Reap
Siem Reap (VDSR)
Krong Siem Reap, Siem Reap, Cambodia
(C)
Lat/Lng:13° 24' 38.4" N / 103° 48' 46.2" E
13.410667 / 103.812832
Elevation:60'ft / 18mMSL
ID / ICAO:VDSR
Runways:1
Longest:05-23
Concrete 2,559m / 8,395ft
Controlled:Yes
METAR06:30 GMT 2018-01-19
Altimeter: 29.77
Visibility: 6.2 statute miles
Wind: 7 knots (from 180°)
Temp: 30°c / 86°f
Humidity: 55.1%

METAR: VDSR 190630Z 18007KT 130V220 9999 FEW017 SCT040 30/20 Q1008

(Powered by phpweather)
Airport Radio Frequencies
ATIS: 129.95
Tower: 118.5
Approach: 124.3
Nearby VORs <50NM
Nearby NDBs
Runway 05 / 23
Dimensions:2558.9 x 45.1m 8395' x 148'ft
Surface:Concrete
Edge Lights:Medium intensity
Runway 05 [A]Runway 23 [B]
Heading:047°TH 227°TH
Lat:
Lng:
13° 24' 10.63"N
103° 48' 14.69"E
13° 25' 6.17"N
103° 49' 17.7"E
User Notes and Comments
13° 24' 38.4" N / 103° 48' 46.2" E
Distance To
Airport ID:
Nearby Airports
(C) BATTAMBANG 45.2 NM
VDBG WSW 241°
(C) KAMPONG CHHNANG 94.5 NM
VDKH SSE 147°
(C) Surin 102.9 NM
VTUJ NNW 348°
(C) Prachin Buri Watthana Nakhon 103.6 NM
VTBW WNW 283°
(C) Nang Rong 109.0 NM
VTW2 NW 320°
(C) Trat RTAF 118.6 NM
VTBV SW 227°
(C) Trat Bangkok Air 127.6 NM
VTBO SW 232°
VFR Chart
Flight Planning at SkyVector.com